User: anonymous   Login
Location: Mentone
(34.5413°N, 85.5351°W)
Time: 03:42:17
(UTC-05:00)
Language:

SL-8 R/B - Orbit

View from above orbital plane
View from above orbital plane
View from above satellite
View from above satellite

Ground track
Ground track

The orbit data is extracted from the following two-line orbital elements,

1 33066U 08031G   14297.56788343  .00000698  00000-0  15097-3 0  9265
2 33066 048.4435 310.3082 0007821 348.2265 156.7439 14.68924529340612
Epoch (UTC): 24 October 2014 13:37:45
Eccentricity: 0.0007821
inclination: 48.4435°
perigee height: 659 km
apogee height: 670 km
right ascension of ascending node: 310.3082°
argument of perigee: 348.2265°
revolutions per day: 14.68924529
mean anomaly at epoch: 156.7439°
orbit number at epoch: 34061

The dashed part of the orbit path shows where the satellite is in the earth's shadow,  

DLR